Showing default

BESSA, 68836

Orbit data source: Space-Track

BESSA, 68836 is a Portuguese payload satellite in SSO that was launched on Mon, 30 Mar 2026 UTC launched from the Air Force Western Test Range (AFWTR). Payload-class satellites include a variety of spacecraft equipped with specific instruments for various scientific and technological missions. These include communications satellites like Starlink; space stations such as the ISS; scientific satellites like the Hubble; Earth observation satellites from companies like Planet Labs, Umbra, and HawkEye 360; GPS; miniature CubeSats for education and research; and military/defense satellites.

Loading next visibility...
Identifier
68836, 2026-067CX
Orbit
SSO
Country
Flag of PTPT / POR
Related business
None
Manufacturer
Unknown
Mission
Operational spacecraft
Bus & Motor
Unknown
Mass
Unknown
Launch date (UTC)
2026-03-30 (3 months ago)
Launch vehicle
Unknown
Launch site
Air Force Western Test Range (AFWTR)
Object type
Payload
Rocket body
Debris
Shape & HBR
Unknown
Radar Cross Section
RCS unknown

Expand to show TLE details & history
Last TLE update: 1 day ago

TLE from 1 day ago
0 BESSA
1 68836U 26067CX  26170.43820131  .00007591  00000-0  37308-3 0  9996
2 68836  97.4532 128.8964 0010924  16.7121 343.4471 15.18272547 12084
Epoch: 2026-06-19T10:31Z
TLE epoch observation values (Epoch: 2026-06-19T10:31:00.593Z)
Latitude
Longitude
63.47675°
Altitude
506.933 km
Speed
7.615 km/s
True Right ascension
08h 35m 35s
True Declination
0° 00' 00"
Sunlit
Object was in daylight at epoch
Visualization orbit readout
Latitude
Unknown
Longitude
Unknown
Altitude
Unknown
Speed
Unknown
Apparent Right ascension
Unknown
Apparent Declination
Unknown
Sunlit
N/A
Visualization observer readout
Local Sidereal Time
07:14:58
Azimuth
Unknown
Elevation
Unknown
Doppler factor
Unknown
Orbital elements
Apogee altitude
515.554 km
Perigee altitude
500.509 km
Semi-major axis
6,886.168 km
Eccentricity
0.00109
Inclination
97.4532°
RAAN
128.8964°
Arg. of periapsis
16.7121°
True anomaly
343.41139°
Mean anomaly
343.4471°
Eccentric anomaly
343.42925°
Mean motion
3.79819 °/min
Orbital period
94.78 mins
BSTAR
0.00037308
Loading maneuver chart data...
Computing Atmospheric mass density...
Loading historical data...
Loading historical data...
Loading historical data...
Loading historical data...
Loading historical data...
Loading historical data...
Loading historical data...

Documentation

Showing up to 5 results
|